Year,Month,Day,Hour,Minute,Value (Times are PST for temperature in C)
2008,07,17,00,00,14.00
2008,07,17,00,01,14.00
2008,07,17,00,02,14.00
2008,07,17,00,03,14.00
2008,07,17,00,04,13.90
2008,07,17,00,05,13.90
2008,07,17,00,06,13.90
2008,07,17,00,07,13.80
2008,07,17,00,08,13.70
2008,07,17,00,09,13.70
2008,07,17,00,10,13.70
2008,07,17,00,11,13.70
2008,07,17,00,12,13.60
2008,07,17,00,13,13.60
2008,07,17,00,14,13.60
2008,07,17,00,15,13.70
2008,07,17,00,16,13.70
2008,07,17,02,02,12.70
2008,07,17,02,03,12.70
2008,07,17,02,04,12.70
2008,07,17,02,05,12.70
2008,07,17,02,06,12.60
2008,07,17,02,07,12.60
2008,07,17,02,08,12.60
2008,07,17,02,09,12.60
2008,07,17,02,10,12.60
2008,07,17,02,11,12.50
2008,07,17,02,12,12.50
2008,07,17,02,13,12.50
2008,07,17,02,14,12.50
2008,07,17,02,15,12.50
2008,07,17,02,16,12.50
2008,07,17,02,17,12.50
2008,07,17,02,18,12.40
2008,07,17,02,19,12.40
2008,07,17,02,20,12.40
2008,07,17,02,21,12.40
2008,07,17,02,22,12.40
2008,07,17,02,23,12.50
2008,07,17,02,24,12.50
2008,07,17,02,25,12.40
2008,07,17,02,26,12.40
2008,07,17,02,27,12.40
2008,07,17,02,28,12.40
2008,07,17,02,29,12.40
2008,07,17,02,30,12.40
2008,07,17,02,31,12.40
2008,07,17,02,32,12.40
2008,07,17,02,33,12.40
2008,07,17,02,34,12.40
2008,07,17,02,35,12.30
2008,07,17,02,36,12.30
2008,07,17,02,37,12.30
2008,07,17,02,38,12.30
2008,07,17,02,39,12.30
2008,07,17,02,40,12.30
2008,07,17,02,41,12.30
2008,07,17,02,42,12.30
2008,07,17,02,43,12.20
2008,07,17,02,44,12.20
2008,07,17,02,45,12.20
2008,07,17,02,46,12.20
2008,07,17,02,47,12.20
2008,07,17,02,48,12.20
2008,07,17,02,49,12.10
2008,07,17,02,50,12.10
2008,07,17,02,51,12.10
2008,07,17,02,52,12.10
2008,07,17,02,53,12.10
2008,07,17,02,54,12.10
2008,07,17,02,55,12.10
2008,07,17,02,56,12.00
2008,07,17,02,57,12.00
2008,07,17,02,58,12.00
2008,07,17,02,59,11.90
2008,07,17,03,00,11.90
2008,07,17,03,01,11.90
2008,07,17,03,02,11.90
2008,07,17,03,03,11.90
2008,07,17,03,04,11.80
2008,07,17,03,05,11.80
2008,07,17,03,06,11.80
2008,07,17,03,07,11.80
2008,07,17,03,08,11.80
2008,07,17,03,09,11.80
2008,07,17,03,10,11.70
2008,07,17,03,11,11.70
2008,07,17,03,12,11.70
2008,07,17,03,13,11.70
2008,07,17,03,14,11.70
2008,07,17,03,15,11.60
2008,07,17,03,16,11.60
2008,07,17,03,17,11.60
2008,07,17,03,18,11.60
2008,07,17,03,19,11.60
2008,07,17,03,20,11.60
2008,07,17,03,21,11.60
2008,07,17,03,22,11.60
2008,07,17,03,23,11.60
2008,07,17,03,24,11.60
2008,07,17,03,25,11.60
2008,07,17,03,26,11.40
2008,07,17,03,27,11.40
2008,07,17,03,28,11.40
2008,07,17,03,29,11.40
2008,07,17,03,30,11.40
2008,07,17,03,31,11.40
2008,07,17,03,32,11.30
2008,07,17,03,33,11.30
2008,07,17,03,34,11.20
2008,07,17,03,35,11.20
2008,07,17,03,36,11.20
2008,07,17,03,37,11.10
2008,07,17,03,38,11.10
2008,07,17,03,39,11.10
2008,07,17,03,40,11.10
2008,07,17,03,41,11.10
2008,07,17,03,42,11.10
2008,07,17,03,43,11.10
2008,07,17,03,44,11.00
2008,07,17,03,45,10.90
2008,07,17,03,46,10.90
2008,07,17,03,47,10.90
2008,07,17,03,48,10.90
2008,07,17,03,49,10.90
2008,07,17,03,50,10.90
2008,07,17,03,51,10.90
2008,07,17,03,52,10.90
2008,07,17,03,53,10.90
2008,07,17,03,54,10.90
2008,07,17,03,55,10.90
2008,07,17,03,56,10.90
2008,07,17,03,57,10.90
2008,07,17,03,58,10.90
2008,07,17,03,59,10.90
2008,07,17,04,00,10.90
2008,07,17,04,01,10.90
2008,07,17,04,02,10.90
2008,07,17,04,03,10.90
2008,07,17,04,04,10.90
2008,07,17,04,05,10.90
2008,07,17,04,06,10.90
2008,07,17,04,07,10.90
2008,07,17,04,08,10.90
2008,07,17,04,09,10.90
2008,07,17,04,10,10.90
2008,07,17,04,11,10.90
2008,07,17,04,12,10.90
2008,07,17,04,13,11.00
2008,07,17,04,14,11.10
2008,07,17,04,15,11.10
2008,07,17,04,16,11.10
2008,07,17,04,17,11.20
2008,07,17,04,18,11.20
2008,07,17,04,19,11.30
2008,07,17,04,20,11.30
2008,07,17,04,21,11.30
2008,07,17,04,22,11.40
2008,07,17,04,23,11.40
2008,07,17,04,24,11.40
2008,07,17,04,25,11.50
2008,07,17,04,26,11.60
2008,07,17,04,27,11.70
2008,07,17,04,28,11.80
2008,07,17,04,29,11.80
2008,07,17,04,30,11.80
2008,07,17,04,31,11.80
2008,07,17,04,32,11.80
2008,07,17,04,33,11.80
2008,07,17,04,34,11.80
2008,07,17,04,35,11.80
2008,07,17,04,36,11.80
2008,07,17,04,37,11.80
2008,07,17,04,38,11.80
2008,07,17,04,39,11.70
2008,07,17,04,40,11.70
2008,07,17,04,41,11.70
2008,07,17,04,42,11.70
2008,07,17,04,43,11.70
2008,07,17,04,44,11.70
2008,07,17,04,45,11.70
2008,07,17,04,46,11.80
2008,07,17,04,47,11.80
2008,07,17,04,48,11.80
2008,07,17,04,49,11.80
2008,07,17,04,50,11.80
2008,07,17,04,51,11.90
2008,07,17,04,52,11.90
2008,07,17,04,53,11.90
2008,07,17,04,54,11.90
2008,07,17,04,55,11.90
2008,07,17,04,56,11.90
2008,07,17,04,57,11.80
2008,07,17,04,58,11.80
2008,07,17,04,59,11.80
2008,07,17,05,00,11.80
2008,07,17,05,01,11.80
2008,07,17,05,02,11.80
2008,07,17,05,03,11.80
2008,07,17,05,04,11.80
2008,07,17,05,05,11.70
2008,07,17,05,06,11.70
2008,07,17,05,07,11.70
2008,07,17,05,08,11.60
2008,07,17,05,09,11.60
2008,07,17,05,10,11.60
2008,07,17,05,11,11.60
2008,07,17,05,12,11.60
2008,07,17,05,13,11.60
2008,07,17,05,14,11.60
2008,07,17,05,15,11.60
2008,07,17,05,16,11.50
2008,07,17,05,17,11.40
2008,07,17,05,18,11.40
2008,07,17,05,19,11.40
2008,07,17,05,20,11.40
2008,07,17,05,21,11.40
2008,07,17,05,22,11.40
2008,07,17,05,23,11.40
2008,07,17,05,24,11.40
2008,07,17,05,25,11.40
2008,07,17,05,26,11.40
2008,07,17,05,27,11.50
2008,07,17,05,28,11.50
2008,07,17,05,29,11.50
2008,07,17,05,30,11.50
2008,07,17,05,31,11.60
2008,07,17,05,32,11.60
2008,07,17,05,33,11.60
2008,07,17,05,34,11.50
2008,07,17,05,35,11.50
2008,07,17,05,36,11.60
2008,07,17,05,37,11.60
2008,07,17,05,38,11.60
2008,07,17,05,39,11.60
2008,07,17,05,40,11.60
2008,07,17,05,41,11.60
2008,07,17,05,42,11.60
2008,07,17,05,43,11.60
2008,07,17,05,44,11.60
2008,07,17,05,45,11.60
2008,07,17,05,46,11.60
2008,07,17,05,47,11.50
2008,07,17,05,48,11.40
2008,07,17,05,49,11.40
2008,07,17,05,50,11.40
2008,07,17,05,51,11.40
2008,07,17,05,52,11.40
2008,07,17,05,53,11.40
2008,07,17,05,54,11.40
2008,07,17,05,55,11.40
2008,07,17,05,56,11.40
2008,07,17,05,57,11.40
2008,07,17,05,58,11.40
2008,07,17,05,59,11.40
2008,07,17,06,00,11.40
2008,07,17,06,01,11.40
2008,07,17,06,02,11.40
2008,07,17,06,03,11.40
2008,07,17,06,04,11.40
2008,07,17,06,05,11.40
2008,07,17,06,06,11.40
2008,07,17,06,07,11.30
2008,07,17,06,08,11.30
2008,07,17,06,09,11.30
2008,07,17,06,10,11.30
2008,07,17,06,11,11.30
2008,07,17,06,12,11.30
2008,07,17,06,13,11.30
2008,07,17,06,14,11.30
2008,07,17,06,15,11.30
2008,07,17,06,16,11.30
2008,07,17,06,17,11.30
2008,07,17,06,18,11.30
2008,07,17,06,19,11.30
2008,07,17,06,20,11.20
2008,07,17,06,21,11.20
2008,07,17,06,22,11.20
2008,07,17,06,23,11.20
2008,07,17,06,24,11.20
2008,07,17,06,25,11.30
2008,07,17,06,26,11.30
2008,07,17,06,27,11.40
2008,07,17,06,28,11.40
2008,07,17,06,29,11.50
2008,07,17,06,30,11.60
2008,07,17,06,31,11.60
2008,07,17,06,32,11.60
2008,07,17,06,33,11.60
2008,07,17,06,34,11.70
2008,07,17,06,35,11.80
2008,07,17,06,36,11.80
2008,07,17,06,37,11.90
2008,07,17,06,38,12.00
2008,07,17,06,39,12.10
2008,07,17,06,40,12.20
2008,07,17,06,41,12.30
2008,07,17,06,42,12.30
2008,07,17,06,43,12.40
2008,07,17,06,44,12.40
2008,07,17,06,45,12.40
2008,07,17,06,46,12.50
2008,07,17,06,47,12.50
2008,07,17,06,48,12.50
2008,07,17,06,49,12.50
2008,07,17,06,50,12.60
2008,07,17,06,51,12.70
2008,07,17,06,52,12.80
2008,07,17,06,53,12.80
2008,07,17,06,54,12.80
2008,07,17,06,55,12.90
2008,07,17,06,56,13.00
2008,07,17,06,57,13.10
2008,07,17,06,58,13.20
2008,07,17,06,59,13.30
2008,07,17,07,00,13.50
2008,07,17,07,01,13.60
2008,07,17,07,02,13.70
2008,07,17,07,03,13.70
2008,07,17,07,04,13.80
2008,07,17,07,05,13.90
2008,07,17,07,06,14.00
2008,07,17,07,07,14.00
2008,07,17,07,08,14.20
2008,07,17,07,09,14.20
2008,07,17,07,10,14.30
2008,07,17,07,11,14.40
2008,07,17,07,12,14.50
2008,07,17,07,13,14.50
2008,07,17,07,14,14.60
2008,07,17,07,15,14.70
2008,07,17,07,16,14.80
2008,07,17,07,17,14.80
2008,07,17,07,18,14.80
2008,07,17,07,19,14.80
2008,07,17,07,20,14.80
2008,07,17,07,21,14.80
2008,07,17,07,22,14.80
2008,07,17,07,23,14.80
2008,07,17,07,24,14.80
2008,07,17,07,25,14.80
2008,07,17,07,26,14.80
2008,07,17,07,27,14.90
2008,07,17,07,28,14.90
2008,07,17,07,29,14.90
2008,07,17,07,30,15.00
2008,07,17,07,31,15.00
2008,07,17,07,32,15.10
2008,07,17,07,33,15.10
2008,07,17,07,34,15.10
2008,07,17,07,35,15.10
2008,07,17,07,36,15.10
2008,07,17,07,37,15.20
2008,07,17,07,38,15.20
2008,07,17,07,39,15.20
2008,07,17,07,40,15.20
2008,07,17,07,41,15.20
2008,07,17,07,42,15.20
2008,07,17,07,43,15.20
2008,07,17,07,44,15.20
2008,07,17,07,45,15.20
2008,07,17,07,46,15.20
2008,07,17,07,47,15.20
2008,07,17,07,48,15.20
2008,07,17,07,49,15.30
2008,07,17,07,50,15.30
2008,07,17,07,51,15.30
2008,07,17,07,52,15.40
2008,07,17,07,53,15.40
2008,07,17,07,54,15.50
2008,07,17,07,55,15.50
2008,07,17,07,56,15.50
2008,07,17,07,57,15.60
2008,07,17,07,58,15.60
2008,07,17,07,59,15.60
2008,07,17,08,00,15.50
2008,07,17,08,01,15.40
2008,07,17,08,02,15.40
2008,07,17,08,03,15.40
2008,07,17,08,04,15.40
2008,07,17,08,05,15.40
2008,07,17,08,06,15.50
2008,07,17,08,07,15.50
2008,07,17,08,08,15.60
2008,07,17,08,09,15.60
2008,07,17,08,10,15.60
2008,07,17,08,11,15.70
2008,07,17,08,12,15.80
2008,07,17,08,13,15.80
2008,07,17,08,14,16.00
2008,07,17,08,15,16.10
2008,07,17,08,16,16.10
2008,07,17,08,17,16.20
2008,07,17,08,18,16.30
2008,07,17,08,19,16.40
2008,07,17,08,20,16.40
2008,07,17,08,21,16.40
2008,07,17,08,22,16.40
2008,07,17,08,23,16.30
2008,07,17,08,24,16.20
2008,07,17,08,25,16.10
2008,07,17,08,26,16.10
2008,07,17,08,27,16.10
2008,07,17,08,28,16.10
2008,07,17,08,29,16.10
2008,07,17,08,30,16.00
2008,07,17,08,31,15.90
2008,07,17,08,32,15.80
2008,07,17,08,33,15.80
2008,07,17,08,34,15.80
2008,07,17,08,35,15.80
2008,07,17,08,36,15.80
2008,07,17,08,37,15.80
2008,07,17,08,38,15.80
2008,07,17,08,39,15.90
2008,07,17,08,40,15.90
2008,07,17,08,41,16.00
2008,07,17,08,42,16.00
2008,07,17,08,43,16.10
2008,07,17,08,44,16.10
2008,07,17,08,45,16.10
2008,07,17,08,46,16.10
2008,07,17,08,47,16.10
2008,07,17,08,48,16.10
2008,07,17,08,49,16.10
2008,07,17,08,50,16.20
2008,07,17,08,51,16.30
2008,07,17,08,52,16.40
2008,07,17,08,53,16.60
2008,07,17,08,54,16.70
2008,07,17,08,55,16.70
2008,07,17,08,56,16.70
2008,07,17,08,57,16.90
2008,07,17,08,58,16.90
2008,07,17,08,59,17.00
2008,07,17,09,00,17.10
2008,07,17,09,01,17.20
2008,07,17,09,02,17.30
2008,07,17,09,03,17.30
2008,07,17,09,04,17.40
2008,07,17,09,05,17.40
2008,07,17,09,06,17.40
2008,07,17,09,07,17.30
2008,07,17,09,08,17.30
2008,07,17,09,09,17.10
2008,07,17,09,10,17.00
2008,07,17,09,11,17.00
2008,07,17,09,12,16.90
2008,07,17,09,13,16.90
2008,07,17,09,14,16.80
2008,07,17,09,15,16.70
2008,07,17,09,16,16.70
2008,07,17,09,17,16.80
2008,07,17,09,18,16.90
2008,07,17,09,19,17.00
2008,07,17,09,20,16.90
2008,07,17,09,21,16.90
2008,07,17,09,22,16.90
2008,07,17,09,23,16.80
2008,07,17,09,24,16.80
2008,07,17,09,25,16.70
2008,07,17,09,26,16.70
2008,07,17,09,27,16.70
2008,07,17,09,28,16.70
2008,07,17,09,29,16.80
2008,07,17,09,30,16.90
2008,07,17,09,31,17.00
2008,07,17,09,32,17.10
2008,07,17,09,33,17.10
2008,07,17,09,34,17.20
2008,07,17,09,35,17.30
2008,07,17,09,36,17.40
2008,07,17,09,37,17.50
2008,07,17,09,38,17.50
2008,07,17,09,39,17.60
2008,07,17,09,40,17.60
2008,07,17,09,41,17.70
2008,07,17,09,42,17.80
2008,07,17,09,43,17.90
2008,07,17,09,44,18.00
2008,07,17,09,45,18.10
2008,07,17,09,46,18.20
2008,07,17,09,47,18.20
2008,07,17,09,48,18.20
2008,07,17,09,49,18.30
2008,07,17,09,50,18.30
2008,07,17,09,51,18.50
2008,07,17,09,52,18.60
2008,07,17,09,53,18.70
2008,07,17,09,54,18.80
2008,07,17,09,55,18.90
2008,07,17,09,56,19.10
2008,07,17,09,57,19.10
2008,07,17,09,58,19.20
2008,07,17,09,59,19.30
2008,07,17,10,00,19.40
2008,07,17,10,01,19.50
2008,07,17,10,02,19.40
2008,07,17,10,03,19.30
2008,07,17,10,04,19.30
2008,07,17,10,05,19.30
2008,07,17,10,06,19.30
2008,07,17,10,07,19.40
2008,07,17,10,08,19.50
2008,07,17,10,09,19.60
2008,07,17,10,10,19.70
2008,07,17,10,11,19.70
2008,07,17,10,12,19.70
2008,07,17,10,13,19.60
2008,07,17,10,14,19.60
2008,07,17,10,15,19.50
2008,07,17,10,16,19.10
2008,07,17,10,17,18.70
2008,07,17,10,18,18.40
2008,07,17,10,19,18.40
2008,07,17,10,20,18.40
2008,07,17,10,21,18.40
2008,07,17,10,22,18.50
2008,07,17,10,23,18.60
2008,07,17,10,24,18.70
2008,07,17,10,25,18.70
2008,07,17,10,26,18.70
2008,07,17,10,27,18.70
2008,07,17,10,28,18.70
2008,07,17,10,29,18.90
2008,07,17,10,30,19.00
2008,07,17,10,31,19.10
2008,07,17,10,32,19.10
2008,07,17,10,33,19.10
2008,07,17,10,34,19.10
2008,07,17,10,35,18.90
2008,07,17,10,36,18.70
2008,07,17,10,37,18.60
2008,07,17,10,38,18.60
2008,07,17,10,39,18.60
2008,07,17,10,40,18.70
2008,07,17,10,41,18.90
2008,07,17,10,42,19.10
2008,07,17,10,43,19.30
2008,07,17,10,44,19.30
2008,07,17,10,45,19.30
2008,07,17,10,46,19.30
2008,07,17,10,47,19.20
2008,07,17,10,48,19.10
2008,07,17,10,49,19.00
2008,07,17,10,50,18.90
2008,07,17,10,51,18.90
2008,07,17,10,52,18.90
2008,07,17,10,53,18.90
2008,07,17,10,54,19.00
2008,07,17,10,55,19.10
2008,07,17,10,56,18.90
2008,07,17,10,57,18.90
2008,07,17,10,58,18.90
2008,07,17,10,59,18.90
2008,07,17,11,00,18.90
2008,07,17,11,01,18.70
2008,07,17,11,02,18.60
2008,07,17,11,03,18.50
2008,07,17,11,04,18.50
2008,07,17,11,05,18.50
2008,07,17,11,06,18.60
2008,07,17,11,07,18.70
2008,07,17,11,08,18.60
2008,07,17,11,09,18.50
2008,07,17,11,10,18.40
2008,07,17,11,11,18.40
2008,07,17,11,12,18.50
2008,07,17,11,13,18.50
2008,07,17,11,14,18.60
2008,07,17,11,15,18.50
2008,07,17,11,16,18.40
2008,07,17,11,17,18.50
2008,07,17,11,18,18.50
2008,07,17,11,19,18.70
2008,07,17,11,20,18.80
2008,07,17,11,21,18.90
2008,07,17,11,22,18.90
2008,07,17,11,23,18.90
2008,07,17,11,24,19.00
2008,07,17,11,25,19.10
2008,07,17,11,26,19.30
2008,07,17,11,27,19.30
2008,07,17,11,28,19.20
2008,07,17,11,29,19.20
2008,07,17,11,30,19.10
2008,07,17,11,31,19.10
2008,07,17,11,32,19.10
2008,07,17,11,33,19.10
2008,07,17,11,34,19.10
2008,07,17,11,35,19.10
2008,07,17,11,36,19.10
2008,07,17,11,37,19.20
2008,07,17,11,38,19.40
2008,07,17,11,39,19.40
2008,07,17,11,40,19.40
2008,07,17,11,41,19.30
2008,07,17,11,42,19.30
2008,07,17,11,43,19.30
2008,07,17,11,44,19.30
2008,07,17,11,45,19.30
2008,07,17,11,46,19.30
2008,07,17,11,47,19.30
2008,07,17,11,48,19.30
2008,07,17,11,49,19.30
2008,07,17,11,50,19.30
2008,07,17,11,51,19.30
2008,07,17,11,52,19.20
2008,07,17,11,53,19.10
2008,07,17,11,54,19.10
2008,07,17,11,55,19.00
2008,07,17,11,56,19.00
2008,07,17,11,57,19.10
2008,07,17,11,58,19.10
2008,07,17,11,59,18.90
2008,07,17,12,00,18.80
2008,07,17,12,01,18.80
2008,07,17,12,02,18.80
2008,07,17,12,03,18.70
2008,07,17,12,04,18.70
2008,07,17,12,05,18.70
2008,07,17,12,06,18.70
2008,07,17,12,07,18.70
2008,07,17,12,08,18.60
2008,07,17,12,09,18.60
2008,07,17,12,10,18.60
2008,07,17,12,11,18.60
2008,07,17,12,12,18.50
2008,07,17,12,13,18.30
2008,07,17,12,14,18.20
2008,07,17,12,15,18.20
2008,07,17,12,16,18.20
2008,07,17,12,17,18.20
2008,07,17,12,18,18.40
2008,07,17,12,19,18.40
2008,07,17,12,20,18.30
2008,07,17,12,21,18.30
2008,07,17,12,22,18.40
2008,07,17,12,23,18.40
2008,07,17,12,24,18.30
2008,07,17,12,25,18.20
2008,07,17,12,26,18.20
2008,07,17,12,27,18.30
2008,07,17,12,28,18.30
2008,07,17,12,29,18.20
2008,07,17,12,30,18.30
2008,07,17,12,31,18.40
2008,07,17,12,32,18.60
2008,07,17,12,33,18.70
2008,07,17,12,34,18.80
2008,07,17,12,35,18.80
2008,07,17,12,36,18.90
2008,07,17,12,37,18.90
2008,07,17,12,38,18.90
2008,07,17,12,39,18.90
2008,07,17,12,40,18.90
2008,07,17,12,41,18.90
2008,07,17,12,42,19.10
2008,07,17,12,43,19.10
2008,07,17,12,44,19.20
2008,07,17,12,45,19.30
2008,07,17,12,46,19.30
2008,07,17,12,47,19.40
2008,07,17,12,48,19.30
2008,07,17,12,49,19.30
2008,07,17,12,50,19.30
2008,07,17,12,51,19.50
2008,07,17,12,52,19.60
2008,07,17,12,53,19.60
2008,07,17,12,54,19.60
2008,07,17,12,55,19.50
2008,07,17,12,56,19.50
2008,07,17,12,57,19.50
2008,07,17,12,58,19.50
2008,07,17,12,59,19.40
2008,07,17,13,00,19.40
2008,07,17,13,01,19.40
2008,07,17,13,02,19.30
2008,07,17,13,03,19.30
2008,07,17,13,04,19.40
2008,07,17,13,05,19.50
2008,07,17,13,06,19.40
2008,07,17,13,07,19.30
2008,07,17,13,08,19.20
2008,07,17,13,09,19.10
2008,07,17,13,10,19.10
2008,07,17,13,11,19.10
2008,07,17,13,12,19.10
2008,07,17,13,13,18.90
2008,07,17,13,14,18.80
2008,07,17,13,15,18.70
2008,07,17,13,16,18.70
2008,07,17,13,17,18.90
2008,07,17,13,18,19.10
2008,07,17,13,19,19.20
2008,07,17,13,20,19.20
2008,07,17,13,21,19.10
2008,07,17,13,22,19.20
2008,07,17,13,23,19.20
2008,07,17,13,24,19.20
2008,07,17,13,25,19.20
2008,07,17,13,26,19.10
2008,07,17,13,27,19.10
2008,07,17,13,28,19.20
2008,07,17,13,29,19.20
2008,07,17,13,30,19.40
2008,07,17,13,31,19.40
2008,07,17,13,32,19.40
2008,07,17,13,33,19.20
2008,07,17,13,34,19.10
2008,07,17,13,35,18.90
2008,07,17,13,36,18.70
2008,07,17,13,37,18.60
2008,07,17,13,38,18.50
2008,07,17,13,39,18.40
2008,07,17,13,40,18.30
2008,07,17,13,41,18.30
2008,07,17,13,42,18.40
2008,07,17,13,43,18.50
2008,07,17,13,44,18.70
2008,07,17,13,45,18.90
2008,07,17,13,46,18.90
2008,07,17,13,47,18.90
2008,07,17,13,48,19.00
2008,07,17,13,49,19.10
2008,07,17,13,50,19.10
2008,07,17,13,51,19.10
2008,07,17,13,52,19.20
2008,07,17,13,53,19.30
2008,07,17,13,54,19.30
2008,07,17,13,55,19.40
2008,07,17,13,56,19.40
2008,07,17,13,57,19.30
2008,07,17,13,58,19.40
2008,07,17,13,59,19.50
2008,07,17,14,00,19.60
2008,07,17,14,01,19.70
2008,07,17,14,02,19.80
2008,07,17,14,03,20.00
2008,07,17,14,04,20.10
2008,07,17,14,05,20.20
2008,07,17,14,06,20.30
2008,07,17,14,07,20.30
2008,07,17,14,08,20.20
2008,07,17,14,09,20.10
2008,07,17,14,10,20.10
2008,07,17,14,11,20.10
2008,07,17,14,12,20.30
2008,07,17,14,13,20.30
2008,07,17,14,14,20.30
2008,07,17,14,15,20.30
2008,07,17,14,16,20.20
2008,07,17,14,17,20.20
2008,07,17,14,18,20.10
2008,07,17,14,19,20.00
2008,07,17,14,20,19.90
2008,07,17,14,21,19.90
2008,07,17,14,22,19.90
2008,07,17,14,23,20.00
2008,07,17,14,24,20.20
2008,07,17,14,25,20.30
2008,07,17,14,26,20.40
2008,07,17,14,27,20.60
2008,07,17,14,28,20.70
2008,07,17,14,29,20.80
2008,07,17,14,30,20.80
2008,07,17,14,31,20.80
2008,07,17,14,32,20.80
2008,07,17,14,33,20.90
2008,07,17,14,34,20.90
2008,07,17,14,35,20.90
2008,07,17,14,36,20.90
2008,07,17,14,37,20.80
2008,07,17,14,38,20.80
2008,07,17,14,39,20.90
2008,07,17,14,40,21.00
2008,07,17,14,41,21.00
2008,07,17,14,42,21.00
2008,07,17,14,43,21.00
2008,07,17,14,44,21.10
2008,07,17,14,45,21.20
2008,07,17,14,46,21.20
2008,07,17,14,47,21.30
2008,07,17,14,48,21.30
2008,07,17,14,49,21.20
2008,07,17,14,50,21.30
2008,07,17,14,51,21.30
2008,07,17,14,52,21.30
2008,07,17,14,53,21.30
2008,07,17,14,54,21.20
2008,07,17,14,55,20.90
2008,07,17,14,56,20.70
2008,07,17,14,57,20.50
2008,07,17,14,58,20.40
2008,07,17,14,59,20.20
2008,07,17,15,00,20.00
2008,07,17,15,01,19.90
2008,07,17,15,02,20.00
2008,07,17,15,03,19.90
2008,07,17,15,04,19.90
2008,07,17,15,05,19.90
2008,07,17,15,06,19.90
2008,07,17,15,07,19.90
2008,07,17,15,08,19.90
2008,07,17,15,09,20.00
2008,07,17,15,10,20.10
2008,07,17,15,11,20.20
2008,07,17,15,12,20.30
2008,07,17,15,13,20.50
2008,07,17,15,14,20.50
2008,07,17,15,15,20.50
2008,07,17,15,16,20.50
2008,07,17,15,17,20.30
2008,07,17,15,18,20.20
2008,07,17,15,19,20.00
2008,07,17,15,20,19.90
2008,07,17,15,21,20.00
2008,07,17,15,22,20.10
2008,07,17,15,23,20.30
2008,07,17,15,24,20.30
2008,07,17,15,25,20.20
2008,07,17,15,26,20.20
2008,07,17,15,27,20.20
2008,07,17,15,28,20.20
2008,07,17,15,29,20.40
2008,07,17,15,30,20.40
2008,07,17,15,31,20.30
2008,07,17,15,32,20.10
2008,07,17,15,33,19.90
2008,07,17,15,34,19.90
2008,07,17,15,35,19.90
2008,07,17,15,36,19.90
2008,07,17,15,37,19.90
2008,07,17,15,38,19.80
2008,07,17,15,39,19.80
2008,07,17,15,40,19.80
2008,07,17,15,41,19.80
2008,07,17,15,42,19.80
2008,07,17,15,43,19.90
2008,07,17,15,44,19.90
2008,07,17,15,45,20.00
2008,07,17,15,46,20.20
2008,07,17,15,47,20.30
2008,07,17,15,48,20.30
2008,07,17,15,49,20.30
2008,07,17,15,50,20.40
2008,07,17,15,51,20.40
2008,07,17,15,52,20.40
2008,07,17,15,53,20.40
2008,07,17,15,54,20.30
2008,07,17,15,55,20.20
2008,07,17,15,56,20.20
2008,07,17,15,57,20.20
2008,07,17,15,58,20.20
2008,07,17,15,59,20.30
2008,07,17,16,00,20.30
2008,07,17,16,01,20.30
2008,07,17,16,02,20.30
2008,07,17,16,03,20.40
2008,07,17,16,04,20.40
2008,07,17,16,05,20.60
2008,07,17,16,06,20.80
2008,07,17,16,07,20.90
2008,07,17,16,08,20.90
2008,07,17,16,09,20.90
2008,07,17,16,10,21.00
2008,07,17,16,11,21.00
2008,07,17,16,12,20.90
2008,07,17,16,13,20.80
2008,07,17,16,14,20.60
2008,07,17,16,15,20.40
2008,07,17,16,16,20.40
2008,07,17,16,17,20.30
2008,07,17,16,18,20.40
2008,07,17,16,19,20.30
2008,07,17,16,20,20.20
2008,07,17,16,21,20.00
2008,07,17,16,22,19.90
2008,07,17,16,23,20.00
2008,07,17,16,24,19.90
2008,07,17,16,25,19.90
2008,07,17,16,26,19.80
2008,07,17,16,27,19.70
2008,07,17,16,28,19.70
2008,07,17,16,29,19.60
2008,07,17,16,30,19.70
2008,07,17,16,31,19.60
2008,07,17,16,32,19.60
2008,07,17,16,33,19.50
2008,07,17,16,34,19.50
2008,07,17,16,35,19.60
2008,07,17,16,36,19.50
2008,07,17,16,37,19.50
2008,07,17,16,38,19.60
2008,07,17,16,39,19.70
2008,07,17,16,40,19.90
2008,07,17,16,41,20.10
2008,07,17,16,42,20.20
2008,07,17,16,43,20.20
2008,07,17,16,44,20.40
2008,07,17,16,45,20.50
2008,07,17,16,46,20.60
2008,07,17,16,47,20.70
2008,07,17,16,48,20.60
2008,07,17,16,49,20.50
2008,07,17,16,50,20.50
2008,07,17,16,51,20.50
2008,07,17,16,52,20.50
2008,07,17,16,53,20.50
2008,07,17,16,54,20.50
2008,07,17,16,55,20.50
2008,07,17,16,56,20.50
2008,07,17,16,57,20.50
2008,07,17,16,58,20.50
2008,07,17,16,59,20.50
2008,07,17,17,00,20.50
2008,07,17,17,01,20.50
2008,07,17,17,02,20.60
2008,07,17,17,03,20.70
2008,07,17,17,04,20.70
2008,07,17,17,05,20.70
2008,07,17,17,06,20.80
2008,07,17,17,07,20.90
2008,07,17,17,08,21.00
2008,07,17,17,09,21.00
2008,07,17,17,10,21.00
2008,07,17,17,11,21.00
2008,07,17,17,12,20.90
2008,07,17,17,13,21.00
2008,07,17,17,14,21.00
2008,07,17,17,15,21.00
2008,07,17,17,16,21.00
2008,07,17,17,17,21.10
2008,07,17,17,18,21.20
2008,07,17,17,19,21.30
2008,07,17,17,20,21.30
2008,07,17,17,21,21.20
2008,07,17,17,22,21.10
2008,07,17,17,23,20.90
2008,07,17,17,24,20.80
2008,07,17,17,25,20.80
2008,07,17,17,26,20.80
2008,07,17,17,27,20.70
2008,07,17,17,28,20.70
2008,07,17,17,29,20.80
2008,07,17,17,30,20.80
2008,07,17,17,31,20.90
2008,07,17,17,32,20.90
2008,07,17,17,33,20.90
2008,07,17,17,34,20.90
2008,07,17,17,35,20.90
2008,07,17,17,36,20.90
2008,07,17,17,37,20.90
2008,07,17,17,38,21.00
2008,07,17,17,39,21.10
2008,07,17,17,40,21.10
2008,07,17,17,41,21.20
2008,07,17,17,42,21.20
2008,07,17,17,43,21.00
2008,07,17,17,44,21.00
2008,07,17,17,45,20.90
2008,07,17,17,46,20.90
2008,07,17,17,47,20.80
2008,07,17,17,48,20.80
2008,07,17,17,49,20.90
2008,07,17,17,50,20.90
2008,07,17,17,51,21.00
2008,07,17,17,52,21.00
2008,07,17,17,53,20.90
2008,07,17,17,54,20.80
2008,07,17,17,55,20.80
2008,07,17,17,56,20.60
2008,07,17,17,57,20.60
2008,07,17,17,58,20.50
2008,07,17,17,59,20.40
2008,07,17,18,00,20.30
2008,07,17,18,01,20.30
2008,07,17,18,02,20.30
2008,07,17,18,03,20.20
2008,07,17,18,04,20.20
2008,07,17,18,05,20.20
2008,07,17,18,06,20.20
2008,07,17,18,07,20.20
2008,07,17,18,08,20.20
2008,07,17,18,09,20.20
2008,07,17,18,10,20.20
2008,07,17,18,11,20.20
2008,07,17,18,12,20.20
2008,07,17,18,13,20.20
2008,07,17,18,14,20.20
2008,07,17,18,15,20.30
2008,07,17,18,16,20.30
2008,07,17,18,17,20.30
2008,07,17,18,18,20.30
2008,07,17,18,19,20.30
2008,07,17,18,20,20.30
2008,07,17,18,21,20.30
2008,07,17,18,22,20.30
2008,07,17,18,23,20.30
2008,07,17,18,24,20.30
2008,07,17,18,25,20.30
2008,07,17,18,26,20.30
2008,07,17,18,27,20.30
2008,07,17,18,28,20.10
2008,07,17,18,29,20.00
2008,07,17,18,30,19.90
2008,07,17,18,31,19.80
2008,07,17,18,32,19.90
2008,07,17,18,33,19.80
2008,07,17,18,34,19.80
2008,07,17,18,35,19.80
2008,07,17,18,36,19.80
2008,07,17,18,37,19.80
2008,07,17,18,38,19.60
2008,07,17,18,39,19.50
2008,07,17,18,40,19.40
2008,07,17,18,41,19.30
2008,07,17,18,42,19.20
2008,07,17,18,43,19.20
2008,07,17,18,44,19.20
2008,07,17,18,45,19.20
2008,07,17,18,46,19.10
2008,07,17,18,47,19.10
2008,07,17,18,48,19.10
2008,07,17,18,49,19.10
2008,07,17,18,50,19.10
2008,07,17,18,51,19.10
2008,07,17,18,52,19.10
2008,07,17,18,53,19.10
2008,07,17,18,54,19.00
2008,07,17,18,55,18.90
2008,07,17,18,56,18.90
2008,07,17,18,57,18.90
2008,07,17,18,58,18.90
2008,07,17,18,59,18.90
2008,07,17,19,00,18.90
2008,07,17,19,01,18.90
2008,07,17,19,02,18.90
2008,07,17,19,03,18.80
2008,07,17,19,04,18.80